Regional Weather Roundup
Issued by NWS

Home | Current Version | Previous Version | Graphics & Text | Print | Product List | Glossary On
Versions: 1 2 3 4 5 6 7 8 9 10 11 12 13 14 15 16 17 18 19 20 21 22 23 24 25 26 27 28 29 30 31 32 33 34 35 36 37 38 39 40 41 42 43 44 45 46 47 48 49 50
908
ASUS44 KLIX 211810
RWRLA
LOUISIANA WEATHER ROUNDUP
NATIONAL WEATHER SERVICE NEW ORLEANS LA
100 PM CDT TUE OCT 21 2014

NOTE: "FAIR" INDICATES FEW OR NO CLOUDS BELOW 12,000 FEET WITH NO
      SIGNIFICANT WEATHER AND/OR OBSTRUCTIONS TO VISIBILITY.
      SKY/WX - SKY CONDITION AND SIGNIFICANT WEATHER.
      TMP - AIR TEMPERATURE.    DP   - DEWPOINT TEMPERATURE.
      RH  - RELATIVE HUMIDITY.  PRES - PRESSURE.
      HX  - HEAT INDEX.         WCI  - WIND CHILL INDEX.

*  THESE STATIONS ARE NOT NWS OR FAA STATIONS AND ARE NOT UNDER
   NWS QUALITY CONTROL.

LAZ040-048-061>063-065-066-069-211900-
SOUTHEAST LOUISIANA

CITY           SKY/WX    TMP DP  RH WIND       PRES   REMARKS
N.O. AUDUBON   NOT AVBL
N.O. INTL ARPT MOSUNNY   77  53  43 NE10      30.04F
6HR MIN TEMP:  59; 6HR MAX TEMP:  78;

N.O. LAKEFRONT SUNNY     77  55  46 NE9       30.04F
6HR MIN TEMP:  67; 6HR MAX TEMP:  77;

N.O. DOWNTOWN* FAIR      77  52  41 E6        30.04F
6HR MIN TEMP:  64; 6HR MAX TEMP:  77;

SLIDELL        SUNNY     78  52  40 NE9       30.03F
6HR MIN TEMP:  50; 6HR MAX TEMP:  78;

BATON ROUGE    SUNNY     79  53  40 N7        30.05F
6HR MIN TEMP:  54; 6HR MAX TEMP:  79;

BOOTHVILLE     SUNNY     76  61  59 NE10G17   30.03F
6HR MIN TEMP:  71; 6HR MAX TEMP:  77;

BELLE CHASSE   MOSUNNY   78  51  38 NE13      30.03F
6HR MIN TEMP:  55; 6HR MAX TEMP:  78;

BOGALUSA*        N/A     79  52  38 N3        30.06F
6HR MIN TEMP:  48; 6HR MAX TEMP:  80;

NEW ROADS*     FAIR      77  53  44 N7        30.06F
6HR MIN TEMP:  53; 6HR MAX TEMP:  77;

GONZALES*      FAIR      78  51  38 NE5       30.03F
6HR MIN TEMP:  55; 6HR MAX TEMP:  78;

HAMMOND*       SUNNY     81  46  30 N7        30.05F
HOUMA*         SUNNY     79  54  41 N12       30.02F
PORT FOURCHON* CLEAR     77  61  57 NE14      30.05F

$$

LAZ041-044-053-054-211900-
SOUTHWEST LOUISIANA

CITY           SKY/WX    TMP DP  RH WIND       PRES   REMARKS
LAKE CHARLES   SUNNY     79  53  40 E14       30.04F
6HR MIN TEMP:  57; 6HR MAX TEMP:  79;

LAFAYETTE      SUNNY     79  53  40 NE10      30.05F
6HR MIN TEMP:  54; 6HR MAX TEMP:  79;

PATTERSON      SUNNY     79  55  44 NE12      30.05F
SALT POINT       N/A     79  55  43 VRB5      30.02F
6HR MIN TEMP:  60; 6HR MAX TEMP:  80;

NEW IBERIA     SUNNY     80  51  36 NE13      30.05F
6HR MIN TEMP:  58; 6HR MAX TEMP:  80;

CHENAULT AIRPK SUNNY     77  52  41 NE10      30.06F

$$

LAZ027-028-211900-
CENTRAL LOUISIANA

CITY           SKY/WX    TMP DP  RH WIND       PRES   REMARKS
FORT POLK      SUNNY     77  60  55 VRB6      30.06F
6HR MIN TEMP:  56; 6HR MAX TEMP:  77;

ALEXANDRIA INT SUNNY     78  58  49 VRB6      30.06F
6HR MIN TEMP:  52; 6HR MAX TEMP:  78;

ALEXANDRIA     SUNNY     78  59  51 VRB7      30.08F

$$

LAZ001-002-211900-
NORTHWEST LOUISIANA

CITY           SKY/WX    TMP DP  RH WIND       PRES   REMARKS
SHREVEPORT     MOSUNNY   79  60  52 CALM      30.08F
6HR MIN TEMP:  54; 6HR MAX TEMP:  80;

BARKSDALE AFB  MOSUNNY   79  59  50 VRB6      30.09F
6HR MIN TEMP:  54; 6HR MAX TEMP:  80;

DTN SHREVEPORT SUNNY     78  59  51 VRB5      30.09F
6HR MIN TEMP:  54; 6HR MAX TEMP:  78;


$$

LAZ014-016-211900-
NORTHEAST LOUISIANA

CITY           SKY/WX    TMP DP  RH WIND       PRES   REMARKS
MONROE         SUNNY     76  59  55 N7        30.09F
6HR MIN TEMP:  54; 6HR MAX TEMP:  76;

TALLULAH       SUNNY     76  56  49 VRB3      30.08F
6HR MIN TEMP:  48; 6HR MAX TEMP:  76;


$$




USA.gov is the U.S. government's official web portal to all federal, state and local government web resources and services.